| time (UTC) | temp F | wind direction | speed MPH | gust MPH | rain 1hr in | rain 24hr in | rain mn in | humidity % | barometer mb |
| 20260504150109 | 47 | 252 | 5.0 | 6.0 | 0.00 | 0.00 | 0.00 | 56 | 1016.1 |
| 20260504141038 | 46 | 174 | 3.0 | 3.0 | 0.00 | 0.00 | 0.00 | 59 | 1016.2 |
| 20260504140534 | 46 | 196 | 2.0 | 2.0 | 0.00 | 0.00 | 0.00 | 60 | 1016.3 |
| 20260504130459 | 45 | 192 | 2.0 | 2.0 | 0.00 | 0.00 | 0.00 | 60 | 1015.6 |
| 20260504110346 | 45 | 351 | 2.0 | 2.0 | 0.00 | 0.00 | 0.00 | 59 | 1016.1 |
| 20260504100303 | 47 | 6 | 7.0 | 8.0 | 0.00 | 0.00 | 0.00 | 53 | 1015.4 |
| 20260504081656 | 50 | 10 | 11.0 | 13.0 | 0.00 | 0.00 | 0.00 | 40 | 1014.3 |
| 20260504081153 | 50 | 62 | 13.0 | 15.0 | 0.00 | 0.00 | 0.00 | 40 | 1013.9 |
| 20260504080649 | 50 | 20 | 14.0 | 21.0 | 0.00 | 0.00 | 0.00 | 38 | 1013.9 |
| 20260504080145 | 50 | 18 | 13.0 | 16.0 | 0.00 | 0.00 | 0.00 | 37 | 1013.6 |
| 20260504070114 | 51 | 34 | 10.0 | 14.0 | 0.00 | 0.00 | 0.00 | 36 | 1011.6 |
| 20260504050502 | 56 | 45 | 1.0 | 1.0 | 0.00 | 0.00 | 0.00 | 29 | 1008.7 |
| 20260504045959 | 55 | 285 | 1.0 | 3.0 | 0.00 | 0.00 | 0.00 | 31 | 1008.8 |
| 20260504045455 | 58 | 225 | 3.0 | 3.0 | 0.00 | 0.00 | 0.00 | 27 | 1008.4 |
| 20260504044951 | 59 | 249 | 1.0 | 1.0 | 0.00 | 0.00 | 0.00 | 26 | 1008.0 |
| 20260504044449 | 60 | 271 | 2.0 | 2.0 | 0.00 | 0.00 | 0.00 | 25 | 1008.0 |
| 20260504043946 | 61 | 74 | 3.0 | 5.0 | 0.00 | 0.00 | 0.00 | 24 | 1007.6 |
| 20260504043443 | 61 | 229 | 1.0 | 1.0 | 0.00 | 0.00 | 0.00 | 22 | 1007.8 |
| 20260504042940 | 62 | 252 | 2.0 | 2.0 | 0.00 | 0.00 | 0.00 | 24 | 1008.2 |
| 20260504042437 | 62 | 84 | 8.0 | 9.0 | 0.00 | 0.00 | 0.00 | 22 | 1007.8 |
| 20260504041934 | 62 | 80 | 11.0 | 13.0 | 0.00 | 0.00 | 0.00 | 21 | 1007.8 |
| 20260504041430 | 62 | 90 | 10.0 | 13.0 | 0.00 | 0.00 | 0.00 | 22 | 1007.8 |
| 20260504040926 | 62 | 82 | 11.0 | 13.0 | 0.00 | 0.00 | 0.00 | 21 | 1007.7 |
| 20260504040424 | 62 | 88 | 12.0 | 14.0 | 0.00 | 0.00 | 0.00 | 21 | 1007.8 |
| 20260504035919 | 62 | 61 | 12.0 | 14.0 | 0.00 | 0.00 | 0.00 | 20 | 1007.8 |
| 20260504035417 | 61 | 77 | 1.0 | 2.0 | 0.00 | 0.00 | 0.00 | 22 | 1008.0 |
| 20260504034913 | 60 | 88 | 3.0 | 3.0 | 0.00 | 0.00 | 0.00 | 23 | 1007.8 |
| 20260504034411 | 62 | 359 | 3.0 | 3.0 | 0.00 | 0.00 | 0.00 | 21 | 1007.8 |
| 20260504033908 | 65 | 338 | 7.0 | 7.0 | 0.00 | 0.00 | 0.00 | 17 | 1007.6 |
| 20260504033406 | 64 | 330 | 2.0 | 2.0 | 0.00 | 0.00 | 0.00 | 17 | 1007.6 |
| 20260504032903 | 64 | 208 | 0.0 | 0.0 | 0.00 | 0.00 | 0.00 | 17 | 1007.5 |
| 20260504032359 | 65 | 189 | 1.0 | 1.0 | 0.00 | 0.00 | 0.00 | 17 | 1007.2 |
| 20260504031856 | 65 | 161 | 2.0 | 2.0 | 0.00 | 0.00 | 0.00 | 17 | 1007.5 |
| 20260504031353 | 65 | 327 | 0.0 | 0.0 | 0.00 | 0.00 | 0.00 | 16 | 1007.3 |
| 20260504030849 | 65 | 212 | 0.0 | 0.0 | 0.00 | 0.00 | 0.00 | 16 | 1007.5 |
| 20260504030347 | 65 | 220 | 1.0 | 1.0 | 0.00 | 0.00 | 0.00 | 17 | 1007.3 |
| 20260504025843 | 66 | 233 | 0.0 | 0.0 | 0.00 | 0.00 | 0.00 | 17 | 1007.3 |
| 20260504025340 | 66 | 234 | 0.0 | 1.0 | 0.00 | 0.00 | 0.00 | 17 | 1007.2 |
| 20260504024837 | 66 | 244 | 1.0 | 1.0 | 0.00 | 0.00 | 0.00 | 17 | 1007.2 |
| 20260504024333 | 66 | 248 | 1.0 | 1.0 | 0.00 | 0.00 | 0.00 | 16 | 1007.3 |
| 20260504023830 | 66 | 243 | 1.0 | 1.0 | 0.00 | 0.00 | 0.00 | 17 | 1007.3 |
| 20260504023327 | 65 | 238 | 1.0 | 2.0 | 0.00 | 0.00 | 0.00 | 17 | 1007.2 |
| 20260504022822 | 65 | 275 | 0.0 | 0.0 | 0.00 | 0.00 | 0.00 | 17 | 1007.0 |
| 20260504022320 | 66 | 275 | 0.0 | 0.0 | 0.00 | 0.00 | 0.00 | 17 | 1006.9 |
| 20260504021816 | 67 | 237 | 0.0 | 0.0 | 0.00 | 0.00 | 0.00 | 17 | 1007.0 |
| 20260504021314 | 68 | 339 | 0.0 | 0.0 | 0.00 | 0.00 | 0.00 | 18 | 1007.0 |
| 20260504020810 | 68 | 277 | 2.0 | 2.0 | 0.00 | 0.00 | 0.00 | 18 | 1007.2 |
| 20260504020307 | 68 | 266 | 3.0 | 3.0 | 0.00 | 0.00 | 0.00 | 17 | 1007.3 |
| 20260504015803 | 69 | 271 | 3.0 | 3.0 | 0.00 | 0.00 | 0.00 | 17 | 1007.0 |
| 20260504015259 | 69 | 284 | 3.0 | 5.0 | 0.00 | 0.00 | 0.00 | 18 | 1007.2 |
| 20260504014755 | 69 | 268 | 3.0 | 3.0 | 0.00 | 0.00 | 0.00 | 18 | 1006.9 |
| 20260504014252 | 70 | 282 | 5.0 | 6.0 | 0.00 | 0.00 | 0.00 | 16 | 1007.2 |
| 20260504013750 | 70 | 296 | 5.0 | 6.0 | 0.00 | 0.00 | 0.00 | 17 | 1007.4 |
| 20260504013247 | 70 | 303 | 5.0 | 6.0 | 0.00 | 0.00 | 0.00 | 17 | 1007.0 |
| 20260504012743 | 70 | 294 | 6.0 | 7.0 | 0.00 | 0.00 | 0.00 | 16 | 1007.3 |
| 20260504012241 | 70 | 312 | 5.0 | 6.0 | 0.00 | 0.00 | 0.00 | 16 | 1007.3 |
| 20260504011738 | 70 | 302 | 6.0 | 7.0 | 0.00 | 0.00 | 0.00 | 16 | 1007.5 |
| 20260504011235 | 71 | 308 | 10.0 | 11.0 | 0.00 | 0.00 | 0.00 | 14 | 1007.3 |
| 20260504010731 | 72 | 293 | 10.0 | 11.0 | 0.00 | 0.00 | 0.00 | 14 | 1007.2 |
| 20260504010226 | 72 | 301 | 8.0 | 9.0 | 0.00 | 0.00 | 0.00 | 13 | 1007.4 |
| 20260504005724 | 73 | 300 | 8.0 | 10.0 | 0.00 | 0.00 | 0.00 | 12 | 1007.5 |
| 20260504005221 | 72 | 285 | 9.0 | 10.0 | 0.00 | 0.00 | 0.00 | 14 | 1007.6 |
| 20260504004718 | 73 | 314 | 14.0 | 15.0 | 0.00 | 0.00 | 0.00 | 13 | 1007.5 |
| 20260504004215 | 73 | 299 | 7.0 | 8.0 | 0.00 | 0.00 | 0.00 | 13 | 1007.6 |
| 20260504003712 | 73 | 295 | 9.0 | 10.0 | 0.00 | 0.00 | 0.00 | 11 | 1007.9 |
| 20260504003209 | 73 | 295 | 10.0 | 11.0 | 0.00 | 0.00 | 0.00 | 13 | 1007.7 |
| 20260504002705 | 73 | 282 | 9.0 | 11.0 | 0.00 | 0.00 | 0.00 | 15 | 1007.7 |
| 20260504002203 | 73 | 264 | 8.0 | 9.0 | 0.00 | 0.00 | 0.00 | 12 | 1007.9 |
| 20260504001701 | 73 | 289 | 9.0 | 10.0 | 0.00 | 0.00 | 0.00 | 13 | 1007.8 |
| 20260504001156 | 73 | 285 | 12.0 | 14.0 | 0.00 | 0.00 | 0.00 | 13 | 1007.8 |
| 20260504000654 | 74 | 273 | 14.0 | 16.0 | 0.00 | 0.00 | 0.00 | 14 | 1007.8 |
| 20260504000151 | 74 | 331 | 8.0 | 10.0 | 0.00 | 0.00 | 0.00 | 13 | 1007.8 |
| 20260503235649 | 74 | 295 | 7.0 | 8.0 | 0.00 | 0.00 | 0.00 | 14 | 1007.9 |
| 20260503235145 | 73 | 279 | 10.0 | 10.0 | 0.00 | 0.00 | 0.00 | 13 | 1007.8 |
| 20260503234644 | 73 | 272 | 10.0 | 11.0 | 0.00 | 0.00 | 0.00 | 14 | 1008.0 |
| 20260503234141 | 73 | 300 | 18.0 | 20.0 | 0.00 | 0.00 | 0.00 | 12 | 1007.8 |
| 20260503233638 | 74 | 272 | 18.0 | 22.0 | 0.00 | 0.00 | 0.00 | 13 | 1007.7 |
| 20260503233133 | 73 | 323 | 7.0 | 7.0 | 0.00 | 0.00 | 0.00 | 11 | 1007.9 |
| 20260503232631 | 74 | 275 | 15.0 | 16.0 | 0.00 | 0.00 | 0.00 | 13 | 1008.0 |
| 20260503232128 | 73 | 270 | 9.0 | 11.0 | 0.00 | 0.00 | 0.00 | 15 | 1008.0 |
| 20260503231626 | 73 | 299 | 6.0 | 7.0 | 0.00 | 0.00 | 0.00 | 16 | 1008.0 |
| 20260503231122 | 73 | 286 | 3.0 | 3.0 | 0.00 | 0.00 | 0.00 | 12 | 1008.0 |
| 20260503230619 | 74 | 274 | 13.0 | 15.0 | 0.00 | 0.00 | 0.00 | 13 | 1008.2 |
| 20260503230116 | 74 | 280 | 5.0 | 6.0 | 0.00 | 0.00 | 0.00 | 13 | 1008.3 |
| 20260503225614 | 73 | 239 | 2.0 | 2.0 | 0.00 | 0.00 | 0.00 | 11 | 1008.4 |
| 20260503225108 | 73 | 260 | 9.0 | 10.0 | 0.00 | 0.00 | 0.00 | 12 | 1008.4 |
| 20260503224606 | 73 | 276 | 10.0 | 11.0 | 0.00 | 0.00 | 0.00 | 15 | 1008.4 |
| 20260503224103 | 73 | 278 | 13.0 | 15.0 | 0.00 | 0.00 | 0.00 | 15 | 1008.7 |
| 20260503223601 | 73 | 297 | 9.0 | 10.0 | 0.00 | 0.00 | 0.00 | 14 | 1008.5 |
| 20260503223056 | 73 | 292 | 20.0 | 22.0 | 0.00 | 0.00 | 0.00 | 15 | 1008.4 |
| 20260503222555 | 73 | 248 | 8.0 | 9.0 | 0.00 | 0.00 | 0.00 | 16 | 1008.7 |
| 20260503222052 | 73 | 298 | 12.0 | 16.0 | 0.00 | 0.00 | 0.00 | 16 | 1008.7 |
| 20260503221550 | 73 | 269 | 13.0 | 14.0 | 0.00 | 0.00 | 0.00 | 15 | 1008.9 |
| 20260503221047 | 73 | 274 | 15.0 | 16.0 | 0.00 | 0.00 | 0.00 | 15 | 1009.0 |
| 20260503220543 | 73 | 262 | 10.0 | 11.0 | 0.00 | 0.00 | 0.00 | 16 | 1008.8 |
| 20260503220041 | 73 | 268 | 12.0 | 18.0 | 0.00 | 0.00 | 0.00 | 16 | 1009.0 |
| 20260503215538 | 73 | 258 | 15.0 | 17.0 | 0.00 | 0.00 | 0.00 | 15 | 1008.9 |
| 20260503215035 | 73 | 268 | 11.0 | 14.0 | 0.00 | 0.00 | 0.00 | 18 | 1009.3 |
| 20260503214533 | 73 | 260 | 15.0 | 18.0 | 0.00 | 0.00 | 0.00 | 16 | 1008.8 |
| 20260503214029 | 73 | 258 | 9.0 | 10.0 | 0.00 | 0.00 | 0.00 | 17 | 1009.2 |
| 20260503213527 | 73 | 269 | 14.0 | 16.0 | 0.00 | 0.00 | 0.00 | 19 | 1009.2 |
| 20260503213024 | 72 | 281 | 8.0 | 9.0 | 0.00 | 0.00 | 0.00 | 17 | 1009.6 |
| 20260503212521 | 72 | 288 | 9.0 | 10.0 | 0.00 | 0.00 | 0.00 | 20 | 1009.6 |
| 20260503212019 | 71 | 259 | 7.0 | 8.0 | 0.00 | 0.00 | 0.00 | 20 | 1009.6 |
| 20260503211516 | 72 | 260 | 14.0 | 16.0 | 0.00 | 0.00 | 0.00 | 19 | 1009.6 |
| 20260503211011 | 72 | 259 | 11.0 | 13.0 | 0.00 | 0.00 | 0.00 | 19 | 1009.8 |
| 20260503210508 | 72 | 251 | 12.0 | 14.0 | 0.00 | 0.00 | 0.00 | 17 | 1009.6 |
| 20260503210004 | 72 | 274 | 17.0 | 20.0 | 0.00 | 0.00 | 0.00 | 20 | 1010.0 |
| 20260503205500 | 71 | 250 | 11.0 | 13.0 | 0.00 | 0.00 | 0.00 | 20 | 1009.8 |
| 20260503204956 | 71 | 270 | 16.0 | 18.0 | 0.00 | 0.00 | 0.00 | 19 | 1010.2 |
| 20260503204454 | 71 | 263 | 9.0 | 9.0 | 0.00 | 0.00 | 0.00 | 19 | 1010.2 |
| 20260503203950 | 71 | 272 | 14.0 | 16.0 | 0.00 | 0.00 | 0.00 | 19 | 1010.2 |
| 20260503203448 | 71 | 250 | 5.0 | 6.0 | 0.00 | 0.00 | 0.00 | 22 | 1010.4 |
| 20260503202944 | 71 | 197 | 10.0 | 11.0 | 0.00 | 0.00 | 0.00 | 22 | 1010.4 |
| 20260503202443 | 71 | 257 | 6.0 | 7.0 | 0.00 | 0.00 | 0.00 | 23 | 1010.5 |
| 20260503201941 | 72 | 198 | 3.0 | 5.0 | 0.00 | 0.00 | 0.00 | 25 | 1010.5 |
| 20260503201438 | 70 | 251 | 6.0 | 7.0 | 0.00 | 0.00 | 0.00 | 24 | 1010.8 |
| 20260503200935 | 71 | 248 | 8.0 | 10.0 | 0.00 | 0.00 | 0.00 | 26 | 1010.7 |
| 20260503200432 | 71 | 237 | 12.0 | 13.0 | 0.00 | 0.00 | 0.00 | 22 | 1010.9 |
| 20260503195928 | 70 | 201 | 7.0 | 8.0 | 0.00 | 0.00 | 0.00 | 24 | 1010.8 |
| 20260503195426 | 70 | 255 | 11.0 | 13.0 | 0.00 | 0.00 | 0.00 | 23 | 1010.9 |
| 20260503194922 | 70 | 257 | 15.0 | 17.0 | 0.00 | 0.00 | 0.00 | 24 | 1011.0 |
| 20260503194419 | 69 | 253 | 16.0 | 17.0 | 0.00 | 0.00 | 0.00 | 25 | 1011.2 |
| 20260503193914 | 70 | 252 | 9.0 | 10.0 | 0.00 | 0.00 | 0.00 | 25 | 1011.3 |
| 20260503193410 | 70 | 292 | 10.0 | 11.0 | 0.00 | 0.00 | 0.00 | 24 | 1011.2 |
| 20260503192906 | 70 | 297 | 11.0 | 13.0 | 0.00 | 0.00 | 0.00 | 25 | 1011.4 |
| 20260503192402 | 69 | 231 | 6.0 | 7.0 | 0.00 | 0.00 | 0.00 | 23 | 1011.6 |
| 20260503191858 | 69 | 249 | 10.0 | 14.0 | 0.00 | 0.00 | 0.00 | 24 | 1011.6 |
| 20260503191356 | 69 | 260 | 11.0 | 15.0 | 0.00 | 0.00 | 0.00 | 25 | 1011.5 |
| 20260503190852 | 69 | 241 | 9.0 | 11.0 | 0.00 | 0.00 | 0.00 | 25 | 1011.6 |
| 20260503190349 | 68 | 270 | 12.0 | 14.0 | 0.00 | 0.00 | 0.00 | 26 | 1011.9 |
| 20260503185846 | 67 | 245 | 5.0 | 7.0 | 0.00 | 0.00 | 0.00 | 27 | 1011.8 |
| 20260503185342 | 69 | 275 | 7.0 | 10.0 | 0.00 | 0.00 | 0.00 | 27 | 1011.8 |
| 20260503184837 | 69 | 271 | 6.0 | 7.0 | 0.00 | 0.00 | 0.00 | 26 | 1011.9 |
| 20260503184333 | 68 | 241 | 8.0 | 9.0 | 0.00 | 0.00 | 0.00 | 24 | 1012.1 |
| 20260503183829 | 68 | 258 | 11.0 | 13.0 | 0.00 | 0.00 | 0.00 | 24 | 1012.2 |
| 20260503183326 | 68 | 258 | 13.0 | 15.0 | 0.00 | 0.00 | 0.00 | 25 | 1012.5 |
| 20260503182823 | 68 | 212 | 5.0 | 6.0 | 0.00 | 0.00 | 0.00 | 26 | 1012.3 |
| 20260503182323 | 68 | 274 | 14.0 | 17.0 | 0.00 | 0.00 | 0.00 | 25 | 1012.2 |
| 20260503181819 | 68 | 256 | 13.0 | 15.0 | 0.00 | 0.00 | 0.00 | 24 | 1012.3 |
| 20260503181316 | 68 | 254 | 16.0 | 18.0 | 0.00 | 0.00 | 0.00 | 26 | 1012.3 |
| 20260503180813 | 67 | 262 | 14.0 | 17.0 | 0.00 | 0.00 | 0.00 | 24 | 1012.4 |
| 20260503180311 | 67 | 267 | 10.0 | 11.0 | 0.00 | 0.00 | 0.00 | 27 | 1012.3 |
| 20260503175807 | 67 | 279 | 21.0 | 22.0 | 0.00 | 0.00 | 0.00 | 24 | 1012.5 |
| 20260503175305 | 67 | 285 | 12.0 | 15.0 | 0.00 | 0.00 | 0.00 | 25 | 1012.5 |
| 20260503174800 | 67 | 277 | 11.0 | 11.0 | 0.00 | 0.00 | 0.00 | 27 | 1012.5 |
| 20260503174259 | 67 | 251 | 7.0 | 8.0 | 0.00 | 0.00 | 0.00 | 29 | 1012.6 |
| 20260503173754 | 67 | 253 | 4.0 | 5.0 | 0.00 | 0.00 | 0.00 | 29 | 1012.8 |
| 20260503173250 | 66 | 316 | 6.0 | 7.0 | 0.00 | 0.00 | 0.00 | 31 | 1012.6 |
| 20260503172747 | 66 | 211 | 2.0 | 2.0 | 0.00 | 0.00 | 0.00 | 33 | 1012.7 |
| 20260503172244 | 66 | 330 | 4.0 | 5.0 | 0.00 | 0.00 | 0.00 | 31 | 1012.6 |
| 20260503171740 | 66 | 265 | 10.0 | 11.0 | 0.00 | 0.00 | 0.00 | 30 | 1012.7 |
| 20260503171238 | 66 | 271 | 8.0 | 9.0 | 0.00 | 0.00 | 0.00 | 29 | 1012.8 |
| 20260503170735 | 65 | 265 | 2.0 | 2.0 | 0.00 | 0.00 | 0.00 | 31 | 1012.9 |
| 20260503170231 | 65 | 255 | 9.0 | 10.0 | 0.00 | 0.00 | 0.00 | 30 | 1013.3 |
| 20260503160153 | 62 | 253 | 6.0 | 8.0 | 0.00 | 0.00 | 0.00 | 44 | 1013.7 |
| 20260503150623 | 61 | 234 | 3.0 | 5.0 | 0.00 | 0.00 | 0.00 | 44 | 1014.2 |